User: anonymous   Login
Location: Slidell
(30.2789°N, 89.7378°W)
Time: 14:41:50
(UTC-05:00)
Language:

Cosmos 2360 Rocket - Orbit

View from above orbital plane
View from above orbital plane
View from above satellite
View from above satellite

Ground track
Ground track

The orbit data is extracted from the following two-line orbital elements,

1 25407U 98045B   14297.46473012 -.00000129  00000-0 -41582-4 0  6001
2 25407 071.0116 272.8412 0009852 248.5820 254.3832 14.15674506839360
Epoch (UTC): 24 October 2014 11:09:12
Eccentricity: 0.0009852
inclination: 71.0116°
perigee height: 833 km
apogee height: 847 km
right ascension of ascending node: 272.8412°
argument of perigee: 248.5820°
revolutions per day: 14.15674506
mean anomaly at epoch: 254.3832°
orbit number at epoch: 83936

The dashed part of the orbit path shows where the satellite is in the earth's shadow,  

DLR